Location: Ruisseau du Bez
(43.8708°N, 0.7566°W)
Time: 11:37:51
(UTC+00:00)

Daily predictions for brighter satellites

Satellite Brightness Start Highest point End
(mag) Time Altitude Azimuth Time Altitude Azimuth Time Altitude Azimuth
Meteor PRIRODA 4.2 18:45:33 10° SE 18:48:30 31° ENE 18:51:28 10° N
Landsat 7 4.0 18:43:53 10° S 18:48:35 77° WSW 18:53:18 10° NNW
Cosmos 1536 4.1 18:50:10 10° SE 18:52:52 19° E 18:55:35 10° NE
Cosmos 1842 4.1 18:50:02 10° NNE 18:53:08 26° ENE 18:56:12 10° SE
Cosmos 2061 Rocket 4.2 18:47:24 10° S 18:53:49 87° W 19:00:19 10° N
COSMOS 2428 2.7 18:48:24 10° SSW 18:54:02 68° ESE 18:59:45 10° NNE
USA 59 Rocket 0.4 18:50:22 10° NNW 18:54:10 50° NE 18:59:24 10° SE
Cosmos 1707 3.7 18:54:01 10° NNE 18:56:56 23° ENE 18:59:49 10° SE
Cosmos 1818 4.3 18:53:53 10° SW 18:59:16 60° NW 19:04:43 10° NNE
Okean O Rocket 3.3 18:57:42 10° E 19:00:20 16° ENE 19:03:05 10° NNE
Cosmos 1626 4.4 19:02:15 10° NW 19:04:41 23° W 19:07:06 10° SW
USA 306 3.5 19:03:40 10° W 19:06:29 38° NNW 19:09:48 10° NE
Cosmos 2278 Rocket 2.6 19:01:58 10° NNW 19:07:25 45° ENE 19:12:39 11° SE
Meteor 2-4 Rocket 4.4 19:01:35 10° NNW 19:07:27 63° W 19:13:11 10° S
CZ-4B DEB 4.3 19:02:31 10° SSE 19:07:56 61° ENE 19:13:21 10° N
CZ-4 R/B 1.6 19:05:22 10° SE 19:09:00 44° ENE 19:12:42 10° N
Tsikada Rocket 4.4 19:03:54 10° NNW 19:10:09 69° W 19:16:27 10° S
CZ-4B R/B 3.7 19:07:30 10° SE 19:12:31 38° ENE 19:17:28 10° N
Cosmos 1766 Rocket 3.5 19:08:27 10° S 19:12:46 73° E 19:17:10 10° NNE
Cosmos 44 Rocket 4.2 19:09:23 10° NW 19:13:53 45° WSW 19:18:19 10° S
NOSS 2-1 (C) 3.6 19:10:37 10° NW 19:14:31 77° NE 19:19:47 11° SE
Resurs 01 Rocket 2.2 19:10:29 10° SE 19:14:34 37° ENE 19:18:39 10° N
TSX-5 3.7 19:13:28 10° NW 19:16:34 62° WSW 19:19:53 10° SSE
YAOGAN 1 4.0 19:12:52 10° S 19:16:55 41° W 19:20:59 10° NNW
ADEOS 3.6 19:11:52 10° SSE 19:17:05 89° E 19:22:20 10° NNW
USA 290 2.5 19:14:42 10° N 19:17:56 49° ENE 19:20:16 17° SE
Helios 1A 2.8 19:14:02 10° NNE 19:18:06 70° ESE 19:22:07 10° S
GEOS 3 Rocket 3.8 19:13:40 13° ESE 19:18:16 58° NE 19:23:21 10° NNW
USA 186 2.4 19:17:45 17° SE 19:19:50 36° ENE 19:22:51 10° N
CZ-4B R/B 3.4 19:15:13 10° SSE 19:19:57 85° WSW 19:24:47 10° NNW
Cosmos 1814 Rocket 4.1 19:15:06 10° SSW 19:20:25 87° WNW 19:25:42 10° NNE
PAYLOAD B 4.3 19:15:34 10° SSE 19:21:03 61° ENE 19:26:35 10° N
Cosmos 1743 4.1 19:18:02 10° SSW 19:21:23 38° WNW 19:24:45 10° N
SPOT 5 4.4 19:22:14 15° E 19:23:20 16° ENE 19:26:02 10° NNE
KORONAS-FOTON 3.6 19:20:25 10° N 19:24:06 70° E 19:27:45 10° SSE
Okean-O 4.3 19:23:05 15° E 19:24:07 17° ENE 19:26:54 10° NNE
Cosmos 1408 Rocket 4.3 19:23:09 10° SSE 19:26:58 30° E 19:30:50 10° NNE
ISS -3.9 19:24:50 10° SW 19:28:11 84° SE 19:30:43 16° ENE
SPOT 1/Viking Rocket 3.7 19:23:03 10° S 19:28:14 77° WSW 19:33:25 10° NNW
NOSS 3-3 (A) 4.2 19:23:33 10° S 19:28:15 34° ESE 19:33:34 10° NE
CZ-4B R/B 2.7 19:25:13 10° SSE 19:29:01 75° ENE 19:33:03 10° N
Cosmos 2237 Rocket 2.2 19:27:36 10° S 19:33:05 56° ESE 19:38:35 10° NNE
SL-08 R/B 3.9 19:29:49 10° N 19:34:42 64° WNW 19:39:32 10° SSW
Aureole 3 Rocket 4.5 19:29:35 10° SSE 19:35:51 35° E 19:40:35 10° NNE
CSL-04 Rocket 3.8 19:31:44 14° SE 19:36:15 54° ENE 19:41:25 10° N
Cosmos 2219 Rocket 4.4 19:33:11 10° WSW 19:38:00 28° NW 19:42:51 10° N
Cosmos 1674 3.8 19:38:41 10° NNW 19:41:49 38° W 19:44:54 10° SSW
Meteor 1-14 Rocket 4.3 19:36:20 10° SSW 19:41:52 80° W 19:47:26 10° N
Cosmos 1328 Rocket 4.2 19:38:12 10° NNW 19:42:24 55° W 19:46:36 10° S
Cosmos 1356 Rocket 3.3 19:39:55 10° N 19:44:07 88° E 19:47:40 14° S
SJ-6B 3.8 19:41:16 10° S 19:44:43 41° W 19:48:09 10° NNW
Meteor 1-11 Rocket 3.7 19:39:24 10° S 19:44:54 57° E 19:50:20 10° NNE
Aureole 1 4.3 19:41:54 10° NNW 19:45:03 70° ENE 19:46:29 33° SE
Lacrosse 4 Rocket 3.6 19:42:08 10° NW 19:45:42 25° WSW 19:49:12 10° SSW
Meteor 1-4 Rocket 3.2 19:44:32 10° NNW 19:47:03 38° W 19:49:06 14° SSW
CARTOSAT-1 3.4 19:46:05 16° SSE 19:49:30 87° ENE 19:53:46 10° NNW
Cosmos 158 Rocket 3.8 19:45:19 10° S 19:50:05 57° ESE 19:54:51 10° NNE
ATLAS CENTAUR R/B 0.8 19:46:41 10° SSW 19:50:10 70° ESE 19:53:52 10° NE
NOSS 2-1 (E) 4.3 19:47:47 10° NW 19:51:49 55° SW 19:56:03 16° SSE
Cosmos 1805 Rocket 4.0 19:52:47 36° E 19:53:03 37° E 19:57:02 10° NNE
Cosmos 1733 2.9 19:53:55 10° S 19:57:21 81° W 20:00:48 10° N
USA 276 2.2 19:58:12 10° WNW 20:00:38 60° NW 20:00:38 60° NW
In-Cosmos 22 4.1 19:56:22 10° N 20:02:06 84° E 20:06:00 20° SSE
Cosmos 1980 3.8 19:56:55 10° SSW 20:02:36 81° WNW 20:08:19 10° NNE
Cosmos 2369 Rocket 3.7 19:59:58 10° N 20:04:05 20° NE 20:05:11 19° ENE
SWARM A 4.2 20:03:48 43° S 20:04:50 89° WNW 20:08:22 10° N
Sich 1 2.9 20:07:34 52° SE 20:08:11 58° E 20:12:25 10° NNE
BlueWalker 3 3.5 20:08:05 10° WNW 20:11:13 25° SW 20:12:13 22° SSW
Cosmos 1943 Rocket 2.1 20:06:04 10° NNW 20:11:36 87° WSW 20:14:05 34° SSE
CSL-04 Debris 4.4 20:07:38 16° S 20:12:07 72° WSW 20:17:36 10° NNW
Terra 3.2 20:13:52 24° NE 20:13:52 24° NE 20:17:02 10° NNE
ACS3 Solar Sail 1.8 20:09:36 25° SSE 20:13:38 78° ENE 20:20:04 10° N
ERS-1 Rocket 3.9 20:14:03 31° ENE 20:14:03 31° ENE 20:18:20 10° N
Cosmos 1570 Rocket 4.1 20:10:03 10° SSW 20:15:19 76° WNW 20:20:36 10° NNE
Cosmos 2298 Rocket 4.2 20:10:16 10° NNW 20:15:29 55° ENE 20:16:27 48° ESE
Nadezhda 4 Rocket 4.0 20:10:30 10° N 20:16:48 83° W 20:21:40 18° S
Cosmos 2195 Rocket 4.4 20:10:51 10° N 20:16:56 65° E 20:19:12 39° SE
Cosmos 2150 Rocket 4.0 20:12:06 10° NNW 20:17:11 56° ENE 20:17:57 50° E
USA 32 4.0 20:12:55 10° N 20:18:08 65° E 20:19:24 49° SE
Cosmos 1805 3.8 20:21:37 42° NNE 20:21:37 42° NNE 20:24:09 10° N
Ariane Rocket 4.4 20:24:21 22° NE 20:24:21 22° NE 20:27:33 10° NNE
Cosmos 1315 Rocket 2.8 20:20:10 10° NNW 20:24:08 76° W 20:24:27 70° SW
Cosmos 2026 Rocket 3.9 20:18:07 10° N 20:24:17 62° E 20:25:51 47° SE
Cosmos 1092 Rocket 4.0 20:18:30 10° N 20:24:47 61° E 20:26:28 46° SE
Cosmos 836 Rocket 4.4 20:20:32 10° SSW 20:25:49 88° ESE 20:31:09 10° NNE
SL-16 R/B 2.9 20:35:17 38° ENE 20:35:17 38° ENE 20:38:59 10° NE
Cosmos 1125 Rocket 4.0 20:28:35 10° NNW 20:33:39 55° WSW 20:35:39 34° SSW
Okean O Rocket 2.1 20:35:02 43° SSW 20:36:09 56° W 20:40:31 10° NNW
Cosmos 1634 Rocket 3.9 20:36:32 54° SE 20:37:41 64° E 20:43:56 10° NNE
Cosmos 1656 Rocket 4.1 20:35:59 10° NNW 20:41:19 45° NE 20:41:19 45° NE
SL-14 R/B 4.2 20:37:59 10° N 20:40:36 43° NNW 20:40:36 43° NNW
USA 59 Rocket 2.4 20:40:15 10° WNW 20:43:40 21° WSW 20:46:30 15° SSW
CZ-4 R/B 4.2 20:41:44 10° WSW 20:43:45 14° W 20:45:49 10° WNW
IRS-1C Rocket 4.2 20:45:02 57° NE 20:45:02 57° NE 20:49:52 10° N
Cosmos 773 Rocket 3.8 20:45:39 82° SSE 20:45:51 85° ESE 20:51:11 10° NNE
Resurs 01 Rocket 3.9 20:47:47 11° SW 20:51:05 22° W 20:54:31 10° NW
Cosmos 2278 Rocket 3.9 20:46:29 10° NW 20:51:14 28° WSW 20:54:31 17° SSW
Cosmos 1743 Rocket 4.3 20:56:20 50° WNW 20:56:20 50° WNW 21:00:29 10° N
MetOp-B 4.1 20:56:15 75° SW 20:56:33 78° WSW 21:01:56 10° NNW
Cosmos 2228 Rocket 4.2 20:52:23 10° N 20:55:20 38° N 20:55:20 38° N
Okean-O 3.3 21:00:31 51° WNW 21:00:31 51° WNW 21:04:23 10° NNW
SPOT 5 3.2 21:01:22 57° WNW 21:01:22 57° WNW 21:05:24 10° NNW
NOSS 3-3 (C) 4.4 20:59:17 10° SW 21:04:33 55° NW 21:10:47 10° NNE
ISS -0.9 21:02:22 10° WNW 21:03:42 19° WNW 21:03:42 19° WNW
USA 267 4.2 21:08:22 31° NE 21:10:14 37° NNE 21:16:06 10° NW
Cosmos 2237 Rocket 4.3 21:12:54 10° WSW 21:17:29 25° NW 21:22:05 10° N
Cosmos 2279 Rocket 4.0 21:19:59 71° NNE 21:19:59 71° NNE 21:25:28 10° N
Cosmos 1607 4.2 21:16:20 10° SW 21:22:47 69° NW 21:29:14 10° NNE
MOS 1 Rocket 4.3 21:24:48 47° WNW 21:24:48 47° WNW 21:29:23 10° NNW
ATLAS CENTAUR R/B 4.1 21:25:58 10° WNW 21:28:02 14° NW 21:29:51 11° N
Cosmos 2297 4.2 21:24:38 10° NNW 21:28:59 55° NNW 21:28:59 55° NNW
NOSS 3-4 (A) 3.9 21:38:12 10° NW 21:44:37 78° NNW 21:44:37 78° NNW
NOSS 3-4 (C) 3.9 21:38:19 10° NW 21:44:43 78° NNW 21:44:43 78° NNW
Cosmos 2369 Rocket 3.1 21:43:02 10° NNW 21:46:58 45° NW 21:46:58 45° NW
Terra 3.7 21:52:34 26° NW 21:52:34 26° NW 21:55:02 10° NNW
ACS3 Solar Sail 4.1 21:54:51 12° WSW 21:58:19 18° W 22:02:31 10° NW
SL-16 R/B 4.0 22:17:00 26° WNW 22:17:53 27° NW 22:22:40 10° N
ATLAS 2AS CENTAUR R/B 4.4 22:30:41 10° NNW 22:35:52 22° NNE 22:36:31 21° NE
USA 267 4.4 22:55:43 36° NW 22:55:43 36° NW 22:59:19 10° NW
Cosmos 2344 4.3 23:20:15 10° NW 23:27:14 63° N 23:27:14 63° N
